Daily Data: Gold Canyon

   
8/23/17
Time         Wind Dir   Wind Spd  Wind Gust   Humidity       Temp  Dew Point   Barom SL  DailyRain   HourRain   RainRate
                            mph        mph          %         F         F         in         in         in      in/hr
12:00am           327          0          2         25       92.8       51.8      29.73       0.00       0.00      0.000
12:05am             8          0          0         25       92.6       51.7      29.73       0.00       0.00      0.000
12:10am            23          0          0         25       92.6       51.7      29.73       0.00       0.00      0.000
12:20am            23          0          0         26       92.6       52.7      29.73       0.00       0.00      0.000
12:25am            23          0          0         26       92.7       52.8      29.73       0.00       0.00      0.000
12:30am            23          0          0         25       92.8       51.8      29.73       0.00       0.00      0.000
12:35am            23          0          0         25       92.8       51.8      29.73       0.00       0.00      0.000
12:40am            23          0          0         26       92.7       52.8      29.73       0.00       0.00      0.000
12:45am            23          0          0         27       92.5       53.7      29.73       0.00       0.00      0.000
12:50am            88          0          0         28       91.9       54.2      29.73       0.00       0.00      0.000
12:55am           129          0          0         31       91.0       56.2      29.73       0.00       0.00      0.000
1:00am            129          3          4         31       90.3       55.6      29.74       0.00       0.00      0.000
1:05am            137          3          4         30       90.2       54.6      29.74       0.00       0.00      0.000
1:10am            125          1          4         29       90.4       53.8      29.74       0.00       0.00      0.000
1:15am            137          2          4         29       90.5       53.9      29.73       0.00       0.00      0.000
1:20am            110          2          4         28       90.6       53.1      29.73       0.00       0.00      0.000
1:25am            110          1          4         28       90.4       52.9      29.74       0.00       0.00      0.000
1:30am            110          2          4         29       90.1       53.6      29.73       0.00       0.00      0.000
1:35am            114          2          3         29       89.7       53.2      29.73       0.00       0.00      0.000
1:40am            127          3          3         29       89.2       52.8      29.73       0.00       0.00      0.000
1:45am            121          2          4         30       88.8       53.4      29.74       0.00       0.00      0.000
1:50am            135          3          4         30       88.6       53.2      29.74       0.00       0.00      0.000
1:55am            143          4          4         31       88.6       54.1      29.74       0.00       0.00      0.000
2:00am            156          5          5         31       88.5       54.0      29.74       0.00       0.00      0.000
2:05am            153          2          5         32       88.3       54.7      29.74       0.00       0.00      0.000
2:10am            153          0          5         32       87.9       54.4      29.74       0.00       0.00      0.000
2:15am             77          0          5         32       87.4       54.0      29.74       0.00       0.00      0.000
2:20am             75          0          0         32       87.0       53.6      29.74       0.00       0.00      0.000
2:25am            115          0          0         33       86.9       54.4      29.74       0.00       0.00      0.000
2:30am            110          0          0         33       86.9       54.4      29.74       0.00       0.00      0.000
2:35am            110          0          2         33       86.7       54.2      29.74       0.00       0.00      0.000
2:40am            110          0          2         34       86.6       54.9      29.74       0.00       0.00      0.000
2:45am             91          0          2         33       86.5       54.0      29.74       0.00       0.00      0.000
2:50am             87          0          0         33       86.3       53.8      29.74       0.00       0.00      0.000
2:55am             91          0          0         33       86.0       53.6      29.74       0.00       0.00      0.000
3:00am            106          0          0         33       85.8       53.4      29.74       0.00       0.00      0.000
3:05am            156          0          0         34       85.7       54.1      29.74       0.00       0.00      0.000
3:10am            131          0          0         35       85.4       54.7      29.74       0.00       0.00      0.000
3:15am            121          0          0         35       85.1       54.4      29.74       0.00       0.00      0.000
3:20am            110          0          0         35       85.2       54.5      29.74       0.00       0.00      0.000
3:25am            104          0          0         35       85.2       54.5      29.74       0.00       0.00      0.000
3:30am             90          0          0         36       84.8       54.9      29.74       0.00       0.00      0.000
3:35am            116          0          0         36       84.8       54.9      29.74       0.00       0.00      0.000
3:40am            140          0          0         37       84.6       55.5      29.74       0.00       0.00      0.000
3:45am            125          0          0         38       84.4       56.0      29.74       0.00       0.00      0.000
3:50am            116          0          0         38       84.2       55.9      29.74       0.00       0.00      0.000
3:55am            114          0          0         39       83.9       56.3      29.74       0.00       0.00      0.000
4:00am            116          0          0         41       83.8       57.6      29.74       0.00       0.00      0.000
4:05am            124          4          4         41       84.1       57.9      29.74       0.00       0.00      0.000
4:10am            130          7          8         41       84.6       58.3      29.74       0.00       0.00      0.000
4:15am            136          3          8         41       84.9       58.6      29.74       0.00       0.00      0.000
4:20am            114          6         12         40       85.4       58.4      29.74       0.00       0.00      0.000
4:25am            122          5         12         40       85.7       58.6      29.74       0.00       0.00      0.000
4:30am            116          6         12         40       85.4       58.4      29.74       0.00       0.00      0.000
4:35am            131          5          9         39       85.3       57.6      29.74       0.00       0.00      0.000
4:40am            121          7          9         39       85.2       57.5      29.74       0.00       0.00      0.000
4:45am            120          5         10         39       85.2       57.5      29.74       0.00       0.00      0.000
4:50am            136          3          8         40       85.0       58.0      29.74       0.00       0.00      0.000
4:55am            125          2          8         40       84.8       57.8      29.74       0.00       0.00      0.000
5:00am            128          5          8         40       84.8       57.8      29.74       0.00       0.00      0.000
5:05am            116          6          7         40       84.9       57.9      29.74       0.00       0.00      0.000
5:10am            138          3          7         40       84.9       57.9      29.75       0.00       0.00      0.000
5:15am            140          4         10         40       85.2       58.2      29.75       0.00       0.00      0.000
5:20am            109          6          9         40       85.4       58.4      29.75       0.00       0.00      0.000
5:25am            120          2          9         40       85.4       58.4      29.75       0.00       0.00      0.000
5:30am            125          5          9         40       85.4       58.4      29.75       0.00       0.00      0.000
5:35am            120          2          6         40       85.3       58.3      29.75       0.00       0.00      0.000
5:40am            116          4          6         41       85.0       58.7      29.75       0.00       0.00      0.000
5:45am            106          3          6         41       84.8       58.5      29.75       0.00       0.00      0.000
5:50am            126          3          6         41       84.7       58.4      29.76       0.00       0.00      0.000
5:55am            124          2          6         42       84.5       58.9      29.76       0.00       0.00      0.000
6:00am            102          3          6         42       84.3       58.7      29.76       0.00       0.00      0.000
6:05am            129          3          6         42       84.1       58.6      29.76       0.00       0.00      0.000
6:10am            114          3          6         42       83.9       58.4      29.76       0.00       0.00      0.000
6:15am            121          3          6         43       83.8       58.9      29.76       0.00       0.00      0.000
6:20am            113          2          4         43       83.6       58.8      29.76       0.00       0.00      0.000
6:25am            127          2          4         44       83.4       59.2      29.76       0.00       0.00      0.000
6:30am            110          3          4         44       83.4       59.2      29.76       0.00       0.00      0.000
6:35am            110          4          4         44       83.4       59.2      29.76       0.00       0.00      0.000
6:40am             94          3          6         44       83.5       59.3      29.76       0.00       0.00      0.000
6:45am            113          2          6         44       83.8       59.6      29.76       0.00       0.00      0.000
6:50am            104          3          6         44       84.4       60.1      29.76       0.00       0.00      0.000
6:55am             95          4          7         44       85.0       60.7      29.76       0.00       0.00      0.000
7:00am            131          4          8         44       85.4       61.0      29.76       0.00       0.00      0.000
7:05am            115          3          7         44       85.6       61.2      29.76       0.00       0.00      0.000
7:10am            119          4          7         44       85.9       61.5      29.77       0.00       0.00      0.000
7:15am            121          2          7         44       86.3       61.8      29.77       0.00       0.00      0.000
7:20am            112          2          7         43       86.7       61.6      29.77       0.00       0.00      0.000
7:25am            143          4          7         43       87.2       62.0      29.77       0.00       0.00      0.000
7:30am            127          2          8         42       87.7       61.8      29.77       0.00       0.00      0.000
7:35am            139          8          8         40       88.1       60.8      29.77       0.00       0.00      0.000
7:40am            153          4          8         40       88.6       61.2      29.78       0.00       0.00      0.000
7:45am            146          4         10         39       88.9       60.8      29.78       0.00       0.00      0.000
7:50am            112          7         11         38       89.2       60.3      29.78       0.00       0.00      0.000
7:55am            125          5         11         39       89.2       61.0      29.78       0.00       0.00      0.000
8:00am            122          4         11         38       89.6       60.7      29.78       0.00       0.00      0.000
8:05am            125          5         10         37       90.0       60.3      29.78       0.00       0.00      0.000
8:10am            152         10         11         37       90.6       60.8      29.78       0.00       0.00      0.000
8:15am            117          4         13         37       90.3       60.5      29.78       0.00       0.00      0.000
8:20am            141          9         10         37       90.4       60.6      29.78       0.00       0.00      0.000
8:25am            150          4         11         37       90.7       60.9      29.78       0.00       0.00      0.000
8:30am            180          4         12         36       90.6       60.0      29.78       0.00       0.00      0.000
8:35am            153          8         11         36       90.6       60.0      29.78       0.00       0.00      0.000
8:40am            116          6         13         36       90.8       60.2      29.79       0.00       0.00      0.000
8:45am            146         11         13         36       91.1       60.5      29.78       0.00       0.00      0.000
8:50am            151          4         12         36       91.0       60.4      29.78       0.00       0.00      0.000
8:55am            136          5         12         36       91.5       60.8      29.78       0.00       0.00      0.000
9:00am            131          8         12         35       91.9       60.4      29.78       0.00       0.00      0.000
9:05am            137          8         12         35       91.6       60.1      29.79       0.00       0.00      0.000
9:10am            144          6         12         35       91.6       60.1      29.78       0.00       0.00      0.000
9:15am            152          4         12         34       92.3       59.9      29.79       0.00       0.00      0.000
9:20am            136          8         11         34       92.4       60.0      29.79       0.00       0.00      0.000
9:25am            139          8         12         33       92.9       59.6      29.79       0.00       0.00      0.000
9:30am            143          6         12         33       93.0       59.7      29.78       0.00       0.00      0.000
9:35am            153          2         10         34       92.8       60.3      29.79       0.00       0.00      0.000
9:40am            116          6         12         33       93.4       60.0      29.79       0.00       0.00      0.000
9:45am            142          6         12         33       93.3       59.9      29.78       0.00       0.00      0.000
9:50am            166          5          9         33       93.6       60.2      29.78       0.00       0.00      0.000
9:55am            168          5         12         33       93.8       60.4      29.78       0.00       0.00      0.000
10:00am           179          6         12         33       94.3       60.8      29.78       0.00       0.00      0.000
10:05am           137          8         10         32       94.3       59.9      29.78       0.00       0.00      0.000
10:10am            81          4         10         32       94.7       60.3      29.78       0.00       0.00      0.000
10:15am           141          5         11         31       95.4       60.0      29.78       0.00       0.00      0.000
10:20am           147          6         11         31       95.2       59.8      29.78       0.00       0.00      0.000
10:25am           149          5         11         32       95.0       60.5      29.78       0.00       0.00      0.000
10:30am           165          6         11         31       95.2       59.8      29.78       0.00       0.00      0.000
10:35am           137          3         10         31       95.1       59.7      29.78       0.00       0.00      0.000
10:40am           188          6         11         31       95.6       60.2      29.78       0.00       0.00      0.000
10:45am           138          5         11         30       95.6       59.3      29.77       0.00       0.00      0.000
10:50am           187          3          8         30       95.7       59.3      29.77       0.00       0.00      0.000
10:55am           147          4          9         30       96.4       59.9      29.77       0.00       0.00      0.000
11:00am           139          2          9         30       96.7       60.2      29.77       0.00       0.00      0.000
11:05am           164          6          9         29       97.1       59.6      29.77       0.00       0.00      0.000
11:10am           128          3          9         29       96.9       59.4      29.77       0.00       0.00      0.000
11:15am           143          2          9         28       97.3       58.8      29.77       0.00       0.00      0.000
11:20am           142          2         10         29       97.2       59.7      29.77       0.00       0.00      0.000
11:25am           162          5         10         29       97.4       59.8      29.76       0.00       0.00      0.000
11:30am           172          5         10         29       97.4       59.8      29.76       0.00       0.00      0.000
11:35am           216          7          8         29       97.8       60.2      29.76       0.00       0.00      0.000
11:40am           170          5          8         28       98.1       59.5      29.75       0.00       0.00      0.000
11:45am           228          2          8         27       98.2       58.5      29.75       0.00       0.00      0.000
11:50am           162          1          8         27       98.4       58.7      29.75       0.00       0.00      0.000
11:55am           156          6         10         27       98.7       58.9      29.75       0.00       0.00      0.000
12:00pm           152          4         10         27       98.3       58.6      29.75       0.00       0.00      0.000
12:05pm            89          1          5         28       98.4       59.7      29.74       0.00       0.00      0.000
12:10pm           168          5          8         27       98.9       59.1      29.74       0.00       0.00      0.000
12:15pm           188          4         10         27       98.3       58.6      29.74       0.00       0.00      0.000
12:20pm           248          2          7         26       98.6       57.8      29.74       0.00       0.00      0.000
12:25pm           149          4          7         26       99.2       58.3      29.73       0.00       0.00      0.000
12:30pm           193          4          7         25       99.6       57.6      29.73       0.00       0.00      0.000
12:35pm            28          3          7         25       99.7       57.6      29.72       0.00       0.00      0.000
12:40pm           133          4          7         25      100.0       57.9      29.72       0.00       0.00      0.000
12:45pm            97          2          7         24      100.1       56.8      29.72       0.00       0.00      0.000
12:50pm             4          2          4         24       99.9       56.7      29.72       0.00       0.00      0.000
12:55pm           129          2          6         24      100.5       57.2      29.71       0.00       0.00      0.000
1:00pm            226          4          6         24      101.0       57.6      29.71       0.00       0.00      0.000
1:05pm            201          5         10         24      101.2       57.8      29.71       0.00       0.00      0.000
1:10pm            276          1         10         24      100.7       57.3      29.70       0.00       0.00      0.000
1:15pm            224          6         12         24      100.9       57.5      29.70       0.00       0.00      0.000
1:20pm            256          2         11         23      101.1       56.5      29.69       0.00       0.00      0.000
1:25pm             73          2         11         23      101.5       56.8      29.69       0.00       0.00      0.000
1:30pm            216          9         11         23      102.0       57.3      29.69       0.00       0.00      0.000
1:35pm            232          3         11         22      101.6       55.7      29.68       0.00       0.00      0.000
1:40pm            222          5         11         23      101.0       56.4      29.68       0.00       0.00      0.000
1:45pm            272          4         13         22      101.2       55.4      29.68       0.00       0.00      0.000
1:50pm            262          3          9         23      101.3       56.7      29.68       0.00       0.00      0.000
1:55pm            294          4          9         23      101.1       56.5      29.67       0.00       0.00      0.000
2:00pm            274          3          9         23      100.9       56.3      29.67       0.00       0.00      0.000
2:05pm            243          2          4         23      101.5       56.8      29.67       0.00       0.00      0.000